Overview Statistics Trail Chart Weather Telemetry Raw packets
 

This is the latest recevied weather packets stored in our database for station/object K5BOU. If no packets are shown the sender has not sent any weather packets the latest 10 day(s).

<< 108 109 110 111 112 113 114 >>
Time Temp. Humidity Pressure Rain* Wind** Luminosity Snow
1787841983 29.44° C 86% 1013.9 hPa 0 mm - 464 W/m² -
1787841680 29.44° C 86% 1013.9 hPa 0 mm - 365 W/m² -
1787841378 28.89° C 89% 1013.8 hPa 0 mm - 337 W/m² -
1787841074 28.89° C 90% 1013.9 hPa 0 mm - 252 W/m² -
1787840769 28.89° C 91% 1013.7 hPa 0 mm - 188 W/m² -
1787840464 28.89° C 92% 1013.8 hPa 0 mm - 325 W/m² -
1787840159 28.33° C 92% 1014 hPa 0 mm - 272 W/m² -
1787839859 28.33° C 95% 1014 hPa 0 mm - 245 W/m² -
1787839555 28.33° C 96% 1014.1 hPa 0 mm - 238 W/m² -
1787839254 27.78° C 97% 1014.1 hPa 0 mm - 252 W/m² -
1787838948 27.78° C 98% 1013.8 hPa 0 mm - 228 W/m² -
1787838648 27.22° C 99% 1013.8 hPa 0 mm - 211 W/m² -
1787838346 26.67° C 99% 1013.9 hPa 0 mm - 105 W/m² -
1787838040 26.67° C 99% 1013.9 hPa 0 mm - 98 W/m² -
1787837739 26.67° C 99% 1013.8 hPa 0 mm - 92 W/m² -
1787837435 26.67° C 99% 1013.8 hPa 0 mm - 81 W/m² -
1787837130 26.67° C 99% 1014 hPa 0 mm - 65 W/m² -
1787836829 26.67° C 99% 1013.7 hPa 0 mm - 50 W/m² -
1787836527 26.67° C 99% 1014 hPa 0 mm - 42 W/m² -
1787836219 26.67° C 99% 1014 hPa 0 mm - 33 W/m² -
1787835915 26.67° C 99% 1013.7 hPa 0 mm - 33 W/m² -
1787835615 26.67° C 99% 1013.9 hPa 0 mm - 30 W/m² -
1787835310 26.11° C 99% 1014 hPa 0 mm - 29 W/m² -
1787835010 26.11° C 99% 1014.1 hPa 0 mm - 32 W/m² -
1787834709 26.11° C 99% 1013.7 hPa 0 mm - 34 W/m² -

* Rain latest hour (hover to see other rain measurements)
** Current wind speed in m/s (hover to see current wind gust speed)